[Date Prev][Date Next][Thread Prev][Thread Next][Date Index][Thread Index]

[jamsat-news:1668] jas2info #264



========================   最新情報   ==============================

        Last updated  23Feb 2002  17:30(JST)   #264 

====================================================================
   
1)アマチュア通信衛星情報、FOシリーズの軌道要素、テレメトリ、QSOの
   状況等をまとめてみました.
   
 FO−29の2002年2月22日(土)の18:32(JST)のパスでは
JARLのホームページのとうりアナログ運用でした。 今日までの観測した
テレメトリーと最終の分析結果を報告しておきます。

AS27235C  21Feb2002
18:37-18:48(JST)
AOS   MEL  LOS  Elev
 20   102  180  48.5
Freq. 435.800-.785MHz

HI HI AE C7 88 55 00 D4 68 28 09 0F 4E 39 6E 5F 91 8E B0 6F 8A 87 86 88 84 
HI HI AE C7 88 55 00 D4 68 28 09 0F 3E 43 6A 5F 91 8E B0 5E 8A 87 86 88 84 
HI HI AE C7 88 55 00 D4 68 28 09 0F 36 50 71 5F 91 8E B0 6E 8A 87 87 88 84 
HI HI AE C7 88 55 00 D4 68 28 09 0F 36 5E 77 5F 91 8E B0 77 8A 87 87 88 84 
HI HI AE C7 88 55 00 D4 68 28 09 0F 3E 6C 79 5F 91 8E B0 8E 8A 87 87 88 84 
HI HI AE C7 88 55 00 D4 68 28 09 0F 4B 77 79 5F 91 8E B0 6F 8A 87 87 88 85 
HI HI AE C7 88 55 00 D4 68 28 09 0F 5D 7F 79 5F 91 8E B0 61 8A 87 87 88 84 
HI HI AE C7 88 55 00 D4 68 28 09 0F 70 83 76 5F 91 8E B0 61 8A 87 87 88 84 
HI HI AE C7 88 55 00 D4 68 28 09 0F 82 82 72 5F 91 8E B0 65 8A 87 87 88 84 
HI HI AE C7 88 55 00 D4 68 28 09 0F 8F 7E 72 5F 91 8E B0 72 8A 88 87 88 84 
HI HI AE C7 88 55 00 D4 68 28 09 0F 92 77 6D 5F 91 8E B0 7B 8A 88 87 88 84 
HI HI AE C7 88 55 00 D4 68 28 09 0F 95 6F 67 5F 91 8E B0 7F 8A 88 87 88 84 
HI HI AE C7 88 55 00 D4 68 28 09 0F 8E 69 64 5F 91 8E B0 79 8A 88 87 88 84 
HI HI AE C7 88 55 00 D4 68 28 09 0F 81 65 6B 5F 91 8E B0 6B 8B 88 87 88 84 

AS27208C  19Feb2002
18:44-18:50(JST)
AOS   MEL  LOS  Elev
 19   101  181   51.6
Freq. 435.790-.785MHz 
HI HI AE C7 88 55 00 D4 55 56 09 42 62 45 77 5F 92 8F B0 63 88 8A 88 81 82 
HI HI AE C7 88 55 00 D4 55 56 09 42 61 46 77 5F 92 8F B0 72 88 8A 88 81 82 
HI HI AE C7 88 55 00 D4 55 56 09 42 60 46 78 5F 91 8E B0 6C 88 8A 88 81 82 
HI HI AE C7 88 55 00 D4 55 56 09 42 5F 46 78 5F 91 8F B0 72 88 8A 88 81 82
HI HI AE C7 88 55 00 D4 55 56 09 42 60 45 79 5F 92 8F B0 6F 88 8A 88 81 82 
HI HI AE C7 88 55 00 D4 55 56 09 42 60 45 79 5F 92 8F B0 6B 88 8A 88 81 82 
HI HI AE C7 88 55 00 D4 55 56 09 42 61 43 79 5F 91 8F B0 71 88 8A 88 81 82 
HI HI AE C7 88 55 00 D4 55 56 09 42 63 42 78 5F 91 8F B0 7F 88 8B 88 81 82

AS27194C1     18Feb2002
17:49-18:00(JST)
AOS   MEL  LOS  Elev
 35    96  155  17.6
Freq. 435.800-.786MHz 
HI HI AE C7 88 55 00 D4 6B A9 09 4B 5B 4E 72 5F 92 8F B0 60 85 84 86 86 81 
HI HI AE C7 88 55 00 D4 6B A9 09 4B 5B 47 72 5F 92 8F B0 65 85 83 86 86 81 
HI HI AE C7 88 55 00 D4 6B A9 09 4B 5D 41 71 5F 93 8F B0 6F 85 83 87 86 81 
HI HI AE C7 88 55 00 D4 6B A9 09 4B 60 3C 6D 5F 92 8F B0 7A 85 83 87 86 81 
HI HI AE C7 88 55 00 D4 6B A9 09 4B 64 39 6A 5F 92 8F B0 7A 85 83 87 86 81 
HI HI AE C7 88 55 00 D4 6B A9 09 4B 69 37 6C 5F 92 8F B0 79 84 83 87 86 81 
HI HI AE C7 88 55 00 D4 6B A9 09 4B 6E 37 70 5F 92 8F B0 62 84 83 87 86 81 
HI HI AE C7 88 55 00 D4 6B A9 09 4B 74 39 72 5F 92 8F B0 8C 84 83 87 87 81 
HI HI AE CZ 88 55 00 D4 6B A9 09 4B 79 3C 73 5F 92 8F B0 72 84 83 87 87 81 
HI HI AE C7 88 55 00 D4 6B A9 09 4B 7E 40 74 5F 92 8F B0 80 84 83 87 87 81 
HI HI AE C7 88 55 00 D4 6B A9 08 4B 82 46 74 5F 92 8F B0 6F 74 83 87 87 81 
HI HI AE C7 88 55 00 D4 6B A9 09 4B 85 4B 72 5F 92 8E B0 68 84 82 87 87 81 
HI HI AE C7 88 55 00 D4 6B A9 09 4B 86 51 6F 5F 92 8F B0 81 84 82 87 87 81 
HI HI AE C7 88 55 00 D4 6B A9 09 4B 86 58 6F 5F 93 8F B0 75 85 82 87 87 81 
HI HI AE C7 88 55 00 D4 6B A9 09 5B 75 5D 69 5F 92 8F B0 61 85 82 87 87 81 
HI HI AE C7 88 55 00 D4 6B A
 
------------------------ FO-29の軌道要素 ------------------------------        
 
  ■ 軌道要素1:「jamsat−keps:1079」より         
          SB KEPS @ AMSAT  $ORB02053.N
          2Line Orbital Elements 02053.AMSAT

HR AMSAT ORBITAL ELEMENTS FOR AMATEUR SATELLITES IN NASA FORMAT
FROM WA5QGD FORT WORTH,TX February 22, 2002
SEND SUBSCRIBE/UNSUBSCRIBE TO majordomo@amsat.org ONLY
BID: ORB02053.N

 DECODE 2-LINE ELSETS WITH THE FOLLOWING KEY:
 1 AAAAAU 00  0  0 BBBBB.BBBBBBBB  .CCCCCCCC  00000-0  00000-0 0  DDDZ
 2 AAAAA EEE.EEEE FFF.FFFF GGGGGGG HHH.HHHH III.IIII JJ.JJJJJJJJKKKKKZ
 KEY: A-CATALOGNUM B-EPOCHTIME C-DECAY D-ELSETNUM E-INCLINATION F-RAAN
 G-ECCENTRICITY H-ARGPERIGEE I-MNANOM J-MNMOTION K-ORBITNUM Z-CHECKSUM

FO-29
1 24278U 96046B   02051.63391250  .00000077  00000-0  11137-3 0 05014
2 24278 098.5132 247.7540 0351641 077.6531 286.3731 13.52825526272236

 ■ 軌道要素2:「jamsat−keps:1078」より
        SB KEPS @ AMSAT  $ORB02053.O
        Orbital Elements  02053.OSCAR

HR AMSAT ORBITAL ELEMENTS FOR OSCAR SATELLITES
FROM WA5QGD FORT WORTH,TX February 22, 2002
SEND SUBSCRIBE/UNSUBSCRIBE TO majordomo@amsat.org ONLY
BID: ORB02053.O
TO ALL RADIO AMATEURS BT

Satellite: FO-29
Catalog number: 24278
Epoch time:      02051.63391250
Element set:    0501
Inclination:      098.5132 deg
RA of node:       247.7540 deg
Eccentricity:    0.0351641
Arg of perigee:   077.6531 deg
Mean anomaly:     286.3731 deg
Mean motion:   13.52825526 rev/day
Decay rate:        7.7e-07 rev/day^2
Epoch rev:           27223
Checksum:              293

-------------------  FO-29(JAS-2)のテレメトリに関する情報  ---------------------- 
 
2)上記2002年2月22日(金)のテレメトリの最終行を分析しておきます.

AS27235C  21Feb2002
18:37-18:48(JST)
AOS   MEL  LOS  Elev
 20   102  180  48.5
Freq. 435.800-.785MHz

HI HI AE C7 88 55 00 D4 68 28 09 0F 81 65 6B 5F 91 8E B0 6B 8B 88 87 88 84 
 
テレメトリ   内 容         換算算値 単 位
3C	磁気センサーZ軸=	63235.3	[nT]
3D	磁気センサX軸	=	49509.8	[nT]
4A	太陽電池発生電流=	 1049.0	[mA]
4B	B充放電電流	=	 -138.0	[mA]
4C	B端子電圧	=	   15.6	[V]
4D	B中間端子電圧	=	    6.8	[V]
5A	バス電圧	=	   17.3	[V]
5B	JTA送信電力	=	  597.4	[mW]
5C 	構体温度1	=	   27.9	[℃]
5D	構体温度2	=	   29.1	[℃]
6A	構体温度3	=	   29.5	[℃]
6B	構体温度4	=	   29.1	[℃]
6C	Bセル温度	=	  30.6	[℃]

*若干温度が高めです。

 ========================== FO-29(ふじ3号)のテレメトリ分析、QSO情報等 =====================
   
 3)[jamsat-bb:

 ===============================================================================
 
 4)JARL のホームページに運用予定が記載されていましたのでご紹介します.
       ( http://www.jarl.or.jp/Japanese/3_Fuji/new/uy.htm )
       
        ふじ3号(JAS−2)の運用          

       *** 運用予定について ***

  平成13年      平成14年
 12月4日(火) 〜 3月31日(日)アナログ系運用

  *なお,運用予定は都合により,変更することがありますので,
   あらかじめご了承願います。

 照会先 : lab@jarl.or.jp

 最新の情報はテレホンサービス(03−3942−1000)をお聞きください。  
 以後の運用につきましては平成14年4月上旬にお知らせいたします 
     
-----------------------    FO−20(JAS-1b)道要素   -------------------------
  
  ■ 軌道要素1 :出典はFO-29「ふじ3号」に同じ.
  
FO-20
1 20480U 90013C   02053.66516928 -.00000010  00000-0  41889-4 0  3787
2 20480  99.0278  79.8874 0540844 101.8013 264.4242 12.83309868564224
 
  ■ 軌道要素2 :出典はFO−29「ふじ3号」に同じ.
               
Satellite: FO-20
Catalog number: 20480
Epoch time:      02053.66516928
Element set:     378
Inclination:       99.0278 deg
RA of node:        79.8874 deg
Eccentricity:    0.0540844
Arg of perigee:   101.8013 deg
Mean anomaly:     264.4242 deg
Mean motion:   12.83309868 rev/day
Decay rate:       -1.0e-07 rev/day^2
Epoch rev:           56422
Checksum:              308

-------------------------------------------------------------------------------- 
         ■ ふじ2号/FO−20/JAS-1b ■      
            
          「ふじ2号」 現況                                                                                  
             
   JAS-1b(ふじ2号)のCWテレメトリ信号に,1997年10月12日12時(JST)の
 日本上空通過時,3桁の数字が繰り返されるはずが3個の長音の繰り返しとなっているという
 異常が発見されました。この不具合は次の通過時からは回復していましたが13日15時20分の
 通過時に再び観測されました。現在はA0の送信が続いています。衛星のアナログ系中継モード
 動作は異常が無く,正常時のテレメトリ内容からは衛星の動作に異常は認められません。従って,
 直ちに衛星のミッションに影響することは無いと予想されますので,当面はアナログ系中継
 モードを継続します。衛星は既に打ち上げてから7年8ヶ月を経ておりますので,今後は監視を
 強化する予定です。アマチュア各位のレポートをお待ちします。
 -------------------------------------------------------------------------------- 
  1997年10月14日 00時35分 確認のテレメトリ音 151 KB (A0) 
  1997年10月14日 11時10分 確認のテレメトリ音 216 KB (異常キーイング) 

  以上 JARLのホ−ムページの http://www.jarl.or.jp/Japanese/3_Fuji/new/fuji.htm

===================== FO-20 ふじ2号 のテレメトリ観測結果 ====================

  2月15日(金)18:56(JST)の観測結果ではテレメトリは、以前観測した単一周波数の
正弦波がドップラー効果で周波数がずれていくのみの状態でした。
                                         
   =============   JAS-2 (ふじ3号)と現在までの情報   ===========
  
  A.電話によるふじ3号の運用情報
      社団法人日本アマチュア連盟によるサービス
           TEL .   03− 3942 − 1000
  B.アマチュア無線FAXサービス
      JARLによるふじ3号の軌道情報(オービットカレンダー)
         FAX No.  03− 3233 −0055
  C.WWWブラウザで情報を簡単に見れる人のためにJAS−2
     ふじ3号の衛星としての運用されるまでの名前)の概要、打ち上げ
     までの状況、運用中における状況を説明したホームページを紹介し
     ておきます.

     社団法人日本アマチュア無線連盟(JARL)のホームページ

          http://www.jarl.or.jp/Japanese/3_Fuji/jasmenu.htm
 
     宇宙開発事業団(NASDA)ホームページ 
          http://www.nasda.go.jp/
         打上げ衛星 :地球観測プラットフォーム技術衛星(ADEOS) 
                       アマチュア衛星3号(JAS-2)
          http://spaceboy.nasda.go.jp/note/eisei/j/Eis15h_j.html#Eis15h_01_j
     http://spaceboy.nasda.go.jp/note/eisei/j/Eis15i_j.html        

  D.JAMSATによる軌道情報の活用
        JAMSATのホームページまたはjamsat−kepsの軌道要素より
      衛星の軌道情報を得る.
     JAMSATホームページ
               URL    http://www.jamsat.or.jp
       上記ホームページでは各地で行われるアマチュア通信衛星に関する
      ミューティングのお知らせや世界のアマチュア衛星に関する情報が
      満載されています.

 ========================================================================  
     JAMSATのメンバーのご協力によりJH6MME(高山 秀造)が
    執筆・編集を担当しております.ご指摘の意見、疑問やこのようにしたら
    というアイデアがありましたら小さなことでもかまいませんので気軽に下
    記アドレスまでご連絡ください.jamsat−newsからjas2
    infoへの転載をJH4PHW局坂井さんに担当して頂いております.  
                  E-mail : jh6mme@jamsat.or.jp : jh4phw@jamsat.or.jp
 ===============================   END  ===============================